Location: Chenereilles
(45.4866°N, 4.0790°E)
Time: 01:54:31
(UTC+00:00)

Sich 1 - Pass Details

Date: 12 November 2019
Orbit: 595 x 625 km, 82.5° (Epoch: 09 December)

Event Time Altitude Azimuth Distance (km) Brightness Sun altitude
Rises 17:16:09 0° 0° (N) 2,863 6.3 -10.6°
Reaches altitude 10° 17:18:35 10° 11° (NNE) 1,959 5.4 -11.0°
Maximum altitude 17:22:25 30° 74° (ENE) 1,094 3.8 -11.6°
Drops below altitude 10° 17:26:15 10° 136° (SE) 1,961 5.3 -12.3°
Sets 17:28:41 0° 147° (SSE) 2,866 6.3 -12.7°
